Date String (YYYY-MM-DD hh:mm:ss) UTC,Instrument flags,absolute air pressure of the measurement (hPa),sample flow rate (lpm),inlet stack bypass flow (lpm),air temperature of the measurement (°C),ambient temperature measured by the external sensor (°C),aerosol sample conditioner tube jacket temperature (°C),OPC LED temperature (°C),internal box temperature (°C),relative humidity of the measurement (%),span deviation,mass concentration of particles derived from Lorenz-Mie calculation of OPC scattering (μg/m³),mass concentration of particles derived from Lorenz-Mie calculation of OPC scattering (μg/m³),mass concentration of particles derived from Lorenz-Mie calculation of OPC scattering (μg/m³)
DateTimeUTC,F1_M11,P_M11,Q1_M11,Q2_M11,T1_M11,T2_M11,T3_M11,T4_M11,T5_M11,U1_M11,ZSPAN_M11,X2_M11,X0_M11,X1_M11
2023-12-16 17:00:00,SystemResetWarning,0832.6,4.99,000.00,020.8,020.3,000.0,028.9,022.2,11.4,0000.0,0001.64,0002.52,0001.32
2023-12-16 17:01:00,SystemResetWarning,0832.6,5.00,000.00,020.8,020.3,000.0,028.9,022.2,12.1,0000.0,0001.61,0002.45,0001.30
2023-12-16 17:02:00,SystemResetWarning,0832.5,5.00,000.00,020.9,020.3,000.0,028.9,022.2,12.5,0000.0,0001.56,0002.35,0001.25
2023-12-16 17:03:00,SystemResetWarning,0832.5,5.01,000.00,020.9,020.3,000.0,029.0,022.3,12.7,0000.0,0001.49,0002.29,0001.18
2023-12-16 17:04:00,SystemResetWarning,0832.6,5.01,000.00,020.9,020.3,000.0,029.0,022.3,12.6,0000.0,0001.47,0002.22,0001.16
2023-12-16 17:05:00,SystemResetWarning,0832.5,5.00,000.00,020.9,020.3,000.0,029.0,022.3,12.3,0000.0,0001.46,0002.21,0001.18
2023-12-16 17:06:00,SystemResetWarning,0832.5,5.00,000.00,020.9,020.4,000.0,029.0,022.3,12.6,0000.0,0001.53,0002.29,0001.23
2023-12-16 17:07:00,SystemResetWarning,0832.5,5.00,000.00,020.9,020.4,000.0,029.0,022.3,12.4,0000.0,0001.55,0002.30,0001.24
2023-12-16 17:08:00,SystemResetWarning,0832.6,5.00,000.00,021.0,020.4,000.0,029.0,022.4,12.3,0000.0,0001.50,0002.25,0001.20
2023-12-16 17:09:00,SystemResetWarning,0832.6,5.00,000.00,021.0,020.4,000.0,029.1,022.4,12.3,0000.0,0001.50,0002.28,0001.19
2023-12-16 17:10:00,SystemResetWarning,0832.5,5.00,000.00,021.0,020.4,000.0,029.1,022.4,12.8,0000.0,0001.54,0002.35,0001.22
2023-12-16 17:11:00,SystemResetWarning,0832.4,5.00,000.00,021.0,020.5,000.0,029.1,022.4,13.0,0000.0,0001.62,0002.52,0001.26
2023-12-16 17:12:00,SystemResetWarning,0832.4,5.00,000.00,021.0,020.5,000.0,029.1,022.4,12.5,0000.0,0001.67,0002.62,0001.31
2023-12-16 17:13:00,SystemResetWarning,0832.5,5.00,000.00,021.1,020.5,000.0,029.1,022.5,12.8,0000.0,0001.72,0002.86,0001.39
2023-12-16 17:14:00,SystemResetWarning,0832.5,5.00,000.00,021.1,020.5,000.0,029.2,022.5,12.6,0000.0,0001.90,0004.30,0001.54
2023-12-16 17:15:00,SystemResetWarning,0832.4,5.00,000.00,021.1,020.5,000.0,029.2,022.5,12.5,0000.0,0001.94,0004.28,0001.61
2023-12-16 17:16:00,SystemResetWarning,0832.3,5.00,000.00,021.1,020.5,000.0,029.2,022.5,11.8,0000.0,0001.95,0004.25,0001.63
2023-12-16 17:17:00,SystemResetWarning,0832.2,5.00,000.00,021.1,020.5,000.0,029.2,022.5,11.3,0000.0,0001.99,0004.22,0001.66
2023-12-16 17:18:00,SystemResetWarning,0832.3,5.00,000.00,021.1,020.6,000.0,029.2,022.5,12.2,0000.0,0002.02,0004.24,0001.69
2023-12-16 17:19:00,SystemResetWarning,0832.3,5.00,000.00,021.2,020.6,000.0,029.2,022.6,13.4,0000.0,0002.05,0004.28,0001.73
2023-12-16 17:20:00,SystemResetWarning,0832.4,4.99,000.00,021.2,020.6,000.0,029.3,022.6,13.5,0000.0,0002.03,0004.14,0001.74
2023-12-16 17:21:00,SystemResetWarning,0832.3,5.00,000.00,021.2,020.6,000.0,029.3,022.6,13.6,0000.0,0002.00,0004.12,0001.71
2023-12-16 17:22:00,SystemResetWarning,0832.2,5.00,000.00,021.2,020.7,000.0,029.3,022.6,12.9,0000.0,0002.04,0004.14,0001.73
2023-12-16 17:23:00,SystemResetWarning,0832.2,5.00,000.00,021.2,020.7,000.0,029.3,022.6,11.3,0000.0,0002.06,0004.11,0001.76
2023-12-16 17:24:00,SystemResetWarning,0832.2,5.00,000.00,021.3,020.7,000.0,029.3,022.6,11.0,0000.0,0002.14,0004.30,0001.80
2023-12-16 17:25:00,SystemResetWarning,0832.2,5.00,000.00,021.3,020.7,000.0,029.3,022.7,11.4,0000.0,0002.15,0003.13,0001.80
2023-12-16 17:26:00,SystemResetWarning,0832.2,5.00,000.00,021.3,020.7,000.0,029.4,022.7,12.8,0000.0,0002.11,0002.86,0001.73
2023-12-16 17:27:00,SystemResetWarning,0832.2,5.00,000.00,021.3,020.8,000.0,029.4,022.7,13.5,0000.0,0002.08,0002.84,0001.68
2023-12-16 17:28:00,SystemResetWarning,0832.2,5.00,000.00,021.3,020.8,000.0,029.4,022.7,13.5,0000.0,0001.98,0002.68,0001.62
2023-12-16 17:29:00,SystemResetWarning,0832.1,5.01,000.00,021.4,020.8,000.0,029.4,022.8,13.9,0000.0,0001.93,0002.61,0001.58
2023-12-16 17:30:00,SystemResetWarning,0832.2,5.00,000.00,021.4,020.8,000.0,029.4,022.8,13.5,0000.0,0001.94,0002.65,0001.61
2023-12-16 17:31:00,SystemResetWarning,0832.1,5.00,000.00,021.4,020.8,000.0,029.5,022.8,13.2,0000.0,0002.04,0002.91,0001.67
2023-12-16 17:32:00,SystemResetWarning,0832.1,5.00,000.00,021.4,020.8,000.0,029.5,022.8,13.2,0000.0,0002.16,0003.06,0001.79
2023-12-16 17:33:00,SystemResetWarning,0832.1,5.01,000.00,021.4,020.8,000.0,029.5,022.8,13.3,0000.0,0002.25,0003.37,0001.87
2023-12-16 17:34:00,SystemResetWarning,0832.0,4.98,000.00,021.4,020.9,000.0,029.5,022.8,13.6,0000.0,0002.26,0004.11,0001.89
2023-12-16 17:35:00,SystemResetWarning,0832.1,5.01,000.00,021.5,020.9,000.0,029.5,022.8,12.7,0000.0,0002.24,0004.00,0001.89
2023-12-16 17:36:00,SystemResetWarning,0832.1,5.01,000.00,021.5,020.9,000.0,029.6,022.9,12.4,0000.0,0002.26,0004.04,0001.88
2023-12-16 17:37:00,SystemResetWarning,0832.1,5.00,000.00,021.5,020.9,000.0,029.6,022.9,11.7,0000.0,0002.31,0004.23,0001.90
2023-12-16 17:38:00,SystemResetWarning,0832.1,4.99,000.00,021.5,020.9,000.0,029.6,022.9,12.9,0000.0,0002.42,0004.52,0002.00
2023-12-16 17:39:00,SystemResetWarning,0832.1,5.01,000.00,021.5,021.0,000.0,029.6,022.9,13.6,0000.0,0002.53,0004.70,0002.08
2023-12-16 17:40:00,SystemResetWarning,0832.1,5.01,000.00,021.5,021.0,000.0,029.6,023.0,13.5,0000.0,0002.57,0004.78,0002.11
2023-12-16 17:41:00,SystemResetWarning,0832.1,5.01,000.00,021.6,021.0,000.0,029.6,023.0,13.7,0000.0,0002.61,0004.88,0002.10
2023-12-16 17:42:00,SystemResetWarning,0832.0,5.00,000.00,021.6,021.0,000.0,029.7,023.0,14.0,0000.0,0002.68,0004.89,0002.13
2023-12-16 17:43:00,SystemResetWarning,0832.0,4.99,000.00,021.6,021.0,000.0,029.7,023.0,12.9,0000.0,0002.73,0004.89,0002.18
2023-12-16 17:44:00,SystemResetWarning,0832.0,5.00,000.00,021.6,021.1,000.0,029.7,023.1,13.3,0000.0,0002.79,0005.14,0002.18
2023-12-16 17:45:00,SystemResetWarning,0832.1,5.00,000.00,021.6,021.1,000.0,029.7,023.1,13.7,0000.0,0002.84,0004.56,0002.22
2023-12-16 17:46:00,SystemResetWarning,0832.0,5.00,000.00,021.7,021.1,000.0,029.7,023.1,13.8,0000.0,0002.92,0004.47,0002.27
2023-12-16 17:47:00,SystemResetWarning,0832.0,5.00,000.00,021.7,021.2,000.0,029.7,023.1,13.7,0000.0,0002.90,0004.43,0002.27
2023-12-16 17:48:00,SystemResetWarning,0832.0,5.00,000.00,021.7,021.2,000.0,029.8,023.2,12.9,0000.0,0002.98,0004.51,0002.31
2023-12-16 17:49:00,SystemResetWarning,0832.0,5.00,000.00,021.7,021.2,000.0,029.8,023.2,13.1,0000.0,0003.00,0004.56,0002.36
2023-12-16 17:50:00,SystemResetWarning,0832.0,5.00,000.00,021.8,021.2,000.0,029.8,023.2,13.5,0000.0,0003.05,0005.01,0002.43
2023-12-16 17:51:00,SystemResetWarning,0832.0,5.00,000.00,021.8,021.3,000.0,029.8,023.2,13.2,0000.0,0003.15,0005.62,0002.53
2023-12-16 17:52:00,SystemResetWarning,0832.0,5.00,000.00,021.8,021.3,000.0,029.8,023.2,12.6,0000.0,0003.21,0005.89,0002.66
2023-12-16 17:53:00,SystemResetWarning,0832.0,5.00,000.00,021.8,021.3,000.0,029.9,023.2,13.0,0000.0,0003.24,0006.10,0002.73
2023-12-16 17:54:00,SystemResetWarning,0832.0,5.01,000.00,021.8,021.3,000.0,029.9,023.3,14.0,0000.0,0003.25,0006.13,0002.76
2023-12-16 17:55:00,SystemResetWarning,0832.0,5.00,000.00,021.9,021.3,000.0,029.9,023.3,14.3,0000.0,0003.24,0005.97,0002.79
2023-12-16 17:56:00,SystemResetWarning,0831.9,5.00,000.00,021.9,021.4,000.0,029.9,023.3,14.6,0000.0,0003.21,0005.80,0002.77
2023-12-16 17:57:00,SystemResetWarning,0831.9,5.00,000.00,021.9,021.4,000.0,030.0,023.4,14.4,0000.0,0003.26,0006.08,0002.80
2023-12-16 17:58:00,SystemResetWarning,0831.9,5.00,000.00,022.0,021.4,000.0,030.0,023.4,14.0,0000.0,0003.36,0006.48,0002.92
2023-12-16 17:59:00,SystemResetWarning,0831.8,5.01,000.00,022.0,021.5,000.0,030.0,023.4,14.3,0000.0,0003.41,0006.63,0003.03
